Location: Atlantic Beach
(40.5890°N, 73.7290°W)
Time: 04:35:51
(UTC+00:00)

OAO 2 Rocket - Pass Details

Date: 29 October 2020
Orbit: 676 x 746 km, 35.0° (Epoch: 23 November)

Event Time Altitude Azimuth Distance (km) Brightness Sun altitude
Rises 23:38:38 0° 261° (W) 3,061 8.2 -20.3°
Reaches altitude 10° 23:41:08 10° 254° (WSW) 2,133 6.9 -20.8°
Maximum altitude 23:45:51 44° 184° (S) 943 3.9 -21.7°
Enters shadow 23:46:58 37° 149° (SSE) 1,044 3.9 -21.9°
